Location: Trois-Rivi�res
(46.3500°N, 72.5500°W)
Time: 01:18:25
(UTC-04:00)

Cosmos 1544 - Visible Passes

Search period start: 29 March 2017 00:00
Search period end: 08 April 2017 00:00
Orbit: 480 x 498 km, 82.5° (Epoch: 27 March)

Date Brightness Start Highest point End Pass type
(mag) Time Alt. Az. Time Alt. Az. Time Alt. Az.
29 Mar 3.0 19:55:46 10° S 19:59:24 86° ESE 20:03:07 10° N visible
30 Mar 6.5 05:45:39 10° NNE 05:48:04 16° ENE 05:50:29 10° ESE visible
30 Mar 6.7 21:10:14 10° W 21:11:40 12° WNW 21:13:04 10° NW visible
31 Mar 7.0 05:23:20 10° NE 05:24:35 11° ENE 05:25:48 10° E visible
31 Mar 6.4 20:45:40 10° WSW 20:48:08 17° WNW 20:50:39 10° NNW visible
01 Apr 5.8 20:21:38 10° SW 20:24:40 24° WNW 20:27:46 10° NNW visible
02 Apr 5.0 19:57:49 10° SW 20:01:14 36° WNW 20:04:41 10° N visible
03 Apr 5.0 05:46:35 10° N 05:50:05 36° ENE 05:53:33 10° SE visible
04 Apr 5.8 05:23:30 10° NNE 05:26:39 25° ENE 05:29:45 10° SE visible
05 Apr 6.4 05:00:36 10° NNE 05:03:10 17° ENE 05:05:42 10° ESE visible
05 Apr 7.1 20:25:33 10° W 20:26:44 11° WNW 20:27:54 10° NW visible
06 Apr 6.7 04:38:07 10° NE 04:39:38 12° ENE 04:41:09 10° E visible
06 Apr 6.6 20:00:49 10° WSW 20:03:11 16° WNW 20:05:35 10° NNW visible
